Weather History for Burlington, VT

Change the Weather History Date:

Friday, January 4, 2013

  Actual Average Record
Temperature  
Mean Temperature 26 °F 20 °F  
Max Temperature 36 °F 28 °F 63 °F (1950)
Min Temperature 15 °F 11 °F -27 °F (1981)
Degree Days  
Heating Degree Days 39 45  
Month to date heating degree days 208 180  
Since 1 July heating degree days 2613 2939  
Cooling Degree Days 0 0  
Month to date cooling degree days 0 0  
Year to date cooling degree days 0 0  
Moisture  
Dew Point 18 °F    
Average Humidity 69    
Maximum Humidity 81    
Minimum Humidity 56    
Precipitation  
Precipitation T in 0.07 in 1.03 in (1982)
Month to date precipitation 0.08 0.27  
Year to date precipitation 0.08 0.27  
Snow  
Snow T in 0.60 in 17.40 in (2003)
Month to date snowfall 3.4 2.7  
Since 1 July snowfall 37.9 26.0  
Snow Depth 12.00 in    
Sea Level Pressure  
Sea Level Pressure 29.81 in    
Wind  
Wind Speed 12 mph (SW)    
Max Wind Speed 20 mph    
Max Gust Speed 28 mph    
Visibility 10 miles    
Events Snow    
T = Trace of Precipitation, MM = Missing Value Source: NWS Daily Summary

Daily Weather History Graph

Daily Weather History Graph

Search for Another Location

Airport:

Trip Planner

Search our weather history database for the weather conditions in past years. The results will help you decide how hot, cold, wet, or windy it might be!

Date:

Astronomy

Jan. 04, 2013 Rise Set
Actual Time 7:28 AM EST 4:26 PM EST
Civil Twilight 6:55 AM EST 4:59 PM EST
Nautical Twilight 6:19 AM EST 5:36 PM EST
Astronomical Twilight 5:44 AM EST 6:11 PM EST
Moon No Moon Rise 10:52 AM EST (1/4)
Length of Visible Light 10h 03m
Length of Day
8h 57m
Waning Gibbous, 55% of the Moon is Illuminated
Jan 4
Waning Gibbous
Jan 4
Last Quarter
Jan 11
New
Jan 18
First Quarter
Jan 26
Full

Hourly Weather History & Observations

Time (EST) Temp. Windchill Dew Point Humidity Pressure Visibility Wind Dir Wind Speed Gust Speed Precip Events Conditions
12:54 AM 16.0 °F 5.3 °F 8.1 °F 71% 29.89 in 10.0 mi South 8.1 mph - N/A   Mostly Cloudy
1:54 AM 17.1 °F 5.8 °F 10.0 °F 74% 29.90 in 10.0 mi SSW 9.2 mph - 0.00 in Snow Light Snow
2:27 AM 17.6 °F 5.7 °F 10.4 °F 73% 29.88 in 9.0 mi SSW 10.4 mph - 0.00 in Snow Light Snow
2:54 AM 19.0 °F 5.0 °F 10.9 °F 71% 29.90 in 9.0 mi South 15.0 mph 19.6 mph 0.00 in Snow Light Snow
3:09 AM 19.4 °F 6.6 °F 12.2 °F 74% 29.87 in 9.0 mi South 12.7 mph - 0.00 in Snow Light Snow
3:54 AM 19.9 °F 8.6 °F 12.9 °F 74% 29.88 in 9.0 mi South 10.4 mph - 0.00 in Snow Light Snow
4:54 AM 21.0 °F 9.3 °F 15.1 °F 78% 29.87 in 9.0 mi South 11.5 mph - 0.00 in Snow Light Snow
5:54 AM 21.9 °F 10.4 °F 16.0 °F 78% 29.88 in 9.0 mi South 11.5 mph - 0.00 in Snow Light Snow
6:54 AM 23.0 °F 11.7 °F 17.1 °F 78% 29.86 in 9.0 mi South 11.5 mph - 0.00 in Snow Light Snow
7:54 AM 24.1 °F 13.1 °F 18.0 °F 77% 29.83 in 10.0 mi South 11.5 mph 18.4 mph 0.00 in   Overcast
8:54 AM 25.0 °F 15.5 °F 19.0 °F 78% 29.83 in 10.0 mi SSW 9.2 mph - N/A   Mostly Cloudy
9:54 AM 28.0 °F 16.5 °F 19.9 °F 72% 29.80 in 10.0 mi South 15.0 mph - N/A   Mostly Cloudy
10:54 AM 30.9 °F 19.8 °F 21.0 °F 67% 29.79 in 10.0 mi SSW 16.1 mph 24.2 mph N/A   Mostly Cloudy
11:54 AM 32.0 °F 22.5 °F 19.9 °F 61% 29.78 in 9.0 mi SSW 12.7 mph 21.9 mph 0.00 in Snow Light Snow
12:54 PM 32.0 °F 23.0 °F 21.0 °F 64% 29.75 in 9.0 mi South 11.5 mph - 0.00 in Snow Light Snow
1:54 PM 35.1 °F 26.9 °F 23.0 °F 61% 29.74 in 10.0 mi SW 11.5 mph 23.0 mph 0.00 in   Overcast
2:54 PM 34.0 °F 25.5 °F 23.0 °F 64% 29.75 in 10.0 mi WSW 11.5 mph 21.9 mph N/A   Overcast
3:54 PM 36.0 °F 29.6 °F 23.0 °F 59% 29.76 in 10.0 mi West 8.1 mph - N/A   Overcast
4:54 PM 35.1 °F 26.4 °F 23.0 °F 61% 29.76 in 9.0 mi West 12.7 mph 20.7 mph 0.00 in Snow Light Snow
5:54 PM 35.1 °F 29.3 °F 23.0 °F 61% 29.78 in 9.0 mi West 6.9 mph - 0.00 in   Overcast
6:54 PM 35.1 °F 26.9 °F 23.0 °F 61% 29.78 in 10.0 mi West 11.5 mph 19.6 mph 0.00 in   Overcast
7:54 PM 34.0 °F 26.0 °F 23.0 °F 64% 29.79 in 10.0 mi West 10.4 mph - 0.00 in   Overcast
8:54 PM 34.0 °F 23.4 °F 23.0 °F 64% 29.79 in 8.0 mi WSW 17.3 mph 23.0 mph 0.00 in Snow Light Snow
9:54 PM 33.1 °F 24.4 °F 21.0 °F 61% 29.78 in 10.0 mi WSW 11.5 mph - 0.00 in   Overcast
10:54 PM 33.1 °F 23.9 °F 19.9 °F 59% 29.78 in 10.0 mi WSW 12.7 mph 19.6 mph N/A   Overcast
11:54 PM 34.0 °F 25.5 °F 21.0 °F 59% 29.78 in 10.0 mi WSW 11.5 mph 24.2 mph N/A   Overcast